GSAT0218 (GALILEO 22) (43058 NORAD) Tracking and Keplerian Element Data

This shows tracking and keplerian element data for the satellite.

Feedback or suggestion? Click here.




ElementValue
Catalog43058
NameGSAT0218 (GALILEO 22)
Epoch Orbit1433
Epoch Day93.01520439
Epoch Year2020
RAAN283.8891
Inclination56.3284
Eccentricity0.0002521
Argument of Perigee279.9397
Mean Anonmoly80.0409
Mean Motion1.70474096
Decay Rate3E-07
L11 43058U 17079D 20093.01520439 .00000030 00000-0 00000+0 0 9994
L22 43058 56.3284 283.8891 0002521 279.9397 80.0409 1.70474096 14335

Live tracking and technical data element details for GSAT0218 (GALILEO 22) (NORAD 43058). GSAT0218 (GALILEO 22) can be tracked NOW for your location showing map with azimuth and elevation plus other details from your city location.

Track the satellite on the map from your city or location and see movement details for azimuth, elevation, latitude, longitude, range, height, and movement on the map or in text.







IsCatalogInMostPopularTable: catalog: 43058, numindb: 441
Update: records affected: 1



GetName: 43058 GSAT0218 (GALILEO 22)

Hit Count: updated at: Thu, 09 Apr 2020 16:11:31 GMT